loading
|

TITAN 3C TRANSTAGE DEB, 1964

Orbit data source: Space-Track

TITAN 3C TRANSTAGE DEB, 1964 is space debris in LEO originally from a launch on Fri, 15 Oct 1965 UTC launched from the Air Force Eastern Test Range (AFETR). Debris objects in space refer to the collection of defunct objects orbiting the Earth. Examples of debris include non-operational satellites, rocket bodies, and fragments generated from explosions, collisions, or faulty payload assembly.

Loading next visibility...
Loading greatness...
TITAN 3C TRANSTAGE DEB details
Identifier
1964, 1965-082GZ
Orbit
LEO
Last TLE update1 day ago
Origin
Flag of USUSAF SSD (US)
ManufacturerUnknown
MissionSpacecraft
Bus & MotorUnknown bus, Unknown motor
MassUnknown
Launch date (UTC)
1965-10-15 (59 years ago)
Launch vehicleUnknown
Launch site
Air Force Eastern Test Range (AFETR)
Object type
Payload
Rocket body
Debris
Shape & HBRUnknown
Radar Cross SectionSmall (<0.1 m²)

Expand to show TLE details & history

TLE from 1 day ago
0 TITAN 3C TRANSTAGE DEB
1 01964U 65082GZ  24280.48557690  .00004845  00000-0  17429-2 0  9997
2 01964  32.1969 352.5811 0182968   2.3217 357.8236 14.23898715 29313
Epoch: 2024-10-06T11:39Z
Definitive object data (Epoch: 2024-10-06T11:39:13.844Z)
Latitude
Longitude162.14657°
Altitude679.447 km
Speed7.587 km/s
True Right ascension23h 30m 19s
True Declination0° 00' 00"
Sunlit
Object was in full shadow at TLE epoch
Predictive object data (real-time)
Latitude-0.70529°
Longitude154.02057°
Altitude683.327 km
Speed7.583 km/s
Apparent Right ascension23h 24m 36s
Apparent Declination-19° 20' 40"
Sunlit
Object is in full shadow
Predictive observer data (real-time)
Local Sidereal Time12:03:20
Azimuth24.838° NE
Elevation-67.809°
Doppler factor1
Orbital elements
Apogee947.346 km
Perigee684.097 km
Semi-major axis7,193.859 km
Eccentricity0.0182968
Inclination32.1969°
RAAN352.5811°
Arg. of periapsis2.3217°
True anomaly357.74212°
Mean anomaly357.8236°
Eccentric anomaly357.78305°
Mean motion3.55713 °/min
BSTAR0.0017429
Period101.21 mins
No data available

TITAN 3C TRANSTAGE DEB Visibility forecast

Observer location: 39.9160978°, -105.1181434

TITAN 3C TRANSTAGE DEB is not visible in the next 10 days
Span
Click to sort rows by Start time (UTC) header in descending order
Start Az.
Max El. time (UTC)
Max El. Az.
Max El.
End time (UTC)
End Az.